• In Romania
  • List of Countries
  • For 7 days
  • Water Temperature
  • Satellite Maps
  • Weather Map
  • Weather Widgets
  • user-avatar
    Login

    Hourly Weather Berat

    Today, 28 May, Sunday

    Time Temperature Precipitation Wind Pressure Humidity
    00:00 +14°C° 0 mm 2 mps 744 mmHg 82%
    01:00 +14°C° 0 mm 2 mps 744 mmHg 81%
    02:00 +14°C° 0 mm 2 mps 744 mmHg 81%
    03:00 +13°C° 0 mm 2 mps 745 mmHg 81%
    04:00 +13°C° 0 mm 2 mps 745 mmHg 81%
    05:00 +15°C° 0 mm 2 mps 745 mmHg 76%
    06:00 +17°C° 0 mm 3 mps 745 mmHg 71%
    07:00 +19°C° 0 mm 3 mps 745 mmHg 67%
    08:00 +20°C° 0 mm 3 mps 745 mmHg 59%
    09:00 +22°C° 0 mm 3 mps 746 mmHg 51%
    10:00 +24°C° 0 mm 3 mps 746 mmHg 44%
    11:00 +25°C° 0.1 mm 3 mps 746 mmHg 44%
    12:00 +25°C° 0.1 mm 3 mps 746 mmHg 44%
    13:00 +26°C° 0.1 mm 4 mps 746 mmHg 44%
    14:00 +25°C° 0.2 mm 3 mps 746 mmHg 47%
    15:00 +25°C° 0.2 mm 3 mps 746 mmHg 50%
    16:00 +25°C° 0.2 mm 3 mps 746 mmHg 53%
    17:00 +22°C° 0.1 mm 3 mps 746 mmHg 60%
    18:00 +20°C° 0.1 mm 3 mps 746 mmHg 68%
    19:00 +18°C° 0.1 mm 2 mps 746 mmHg 75%
    20:00 +17°C° 0 mm 2 mps 746 mmHg 77%
    21:00 +17°C° 0 mm 2 mps 747 mmHg 78%
    22:00 +16°C° 0 mm 2 mps 747 mmHg 79%
    23:00 +16°C° 0 mm 2 mps 747 mmHg 79%

    Tomorrow, 29 May, Monday

    Time Temperature Precipitation Wind Pressure Humidity
    00:00 +16°C° 0 mm 2 mps 747 mmHg 80%
    01:00 +16°C° 0 mm 2 mps 747 mmHg 80%
    02:00 +15°C° 0 mm 2 mps 746 mmHg 80%
    03:00 +15°C° 0 mm 2 mps 746 mmHg 81%
    04:00 +14°C° 0 mm 2 mps 746 mmHg 81%
    05:00 +16°C° 0 mm 2 mps 746 mmHg 76%
    06:00 +18°C° 0 mm 2 mps 746 mmHg 71%
    07:00 +21°C° 0 mm 1 mps 746 mmHg 65%
    08:00 +23°C° 0 mm 1 mps 746 mmHg 58%
    09:00 +25°C° 0 mm 1 mps 746 mmHg 51%
    10:00 +26°C° 0 mm 1 mps 746 mmHg 44%
    11:00 +27°C° 0.2 mm 2 mps 746 mmHg 46%
    12:00 +27°C° 0.2 mm 2 mps 746 mmHg 47%
    13:00 +27°C° 0.2 mm 3 mps 745 mmHg 48%
    14:00 +26°C° 0.6 mm 3 mps 745 mmHg 51%
    15:00 +26°C° 0.6 mm 3 mps 745 mmHg 54%
    16:00 +25°C° 0.6 mm 2 mps 745 mmHg 58%
    17:00 +23°C° 0.2 mm 2 mps 745 mmHg 65%
    18:00 +20°C° 0.2 mm 2 mps 745 mmHg 73%
    19:00 +19°C° 0.2 mm 1 mps 745 mmHg 81%
    20:00 +18°C° 0.1 mm 1 mps 745 mmHg 82%
    21:00 +16°C° 0.1 mm 1 mps 745 mmHg 83%
    22:00 +15°C° 0.1 mm 1 mps 745 mmHg 84%
    23:00 +14°C° 0 mm 0 mps 745 mmHg 84%

    Day after tomorrow, 30 May, Tuesday

    Time Temperature Precipitation Wind Pressure Humidity
    00:00 +14°C° 0 mm 0 mps 745 mmHg 85%
    01:00 +14°C° 0 mm 0 mps 745 mmHg 85%
    02:00 +13°C° 0 mm 0 mps 744 mmHg 86%
    03:00 +13°C° 0 mm 0 mps 744 mmHg 86%
    04:00 +13°C° 0 mm 0 mps 744 mmHg 86%
    05:00 +15°C° 0 mm 0 mps 745 mmHg 79%
    06:00 +18°C° 0 mm 0 mps 745 mmHg 71%
    07:00 +21°C° 0 mm 0 mps 745 mmHg 63%
    08:00 +24°C° 0.1 mm 1 mps 745 mmHg 59%
    09:00 +25°C° 0.1 mm 1 mps 745 mmHg 54%
    10:00 +26°C° 0.1 mm 2 mps 745 mmHg 49%
    11:00 +27°C° 0.3 mm 2 mps 745 mmHg 49%
    12:00 +27°C° 0.3 mm 3 mps 745 mmHg 48%
    13:00 +27°C° 0.3 mm 3 mps 745 mmHg 47%
    14:00 +27°C° 0.2 mm 3 mps 745 mmHg 48%
    15:00 +26°C° 0.2 mm 3 mps 745 mmHg 49%
    16:00 +26°C° 0.2 mm 3 mps 745 mmHg 50%
    17:00 +24°C° 0 mm 2 mps 745 mmHg 60%
    18:00 +21°C° 0 mm 1 mps 745 mmHg 69%
    19:00 +19°C° 0 mm 1 mps 745 mmHg 79%
    20:00 +18°C° 0 mm 1 mps 746 mmHg 80%
    21:00 +16°C° 0 mm 1 mps 746 mmHg 81%
    22:00 +14°C° 0 mm 0 mps 746 mmHg 83%
    23:00 +14°C° 0 mm 0 mps 746 mmHg 83%

    31 May, Wednesday

    Time Temperature Precipitation Wind Pressure Humidity
    00:00 +14°C° 0 mm 0 mps 746 mmHg 83%
    01:00 +13°C° 0 mm 0 mps 746 mmHg 83%
    02:00 +14°C° 0 mm 1 mps 746 mmHg 83%
    03:00 +14°C° 0 mm 1 mps 746 mmHg 83%
    04:00 +14°C° 0 mm 1 mps 746 mmHg 83%
    05:00 +16°C° 0 mm 1 mps 746 mmHg 73%
    06:00 +20°C° 0 mm 1 mps 746 mmHg 64%
    07:00 +23°C° 0 mm 1 mps 747 mmHg 54%
    08:00 +24°C° 0 mm 1 mps 747 mmHg 49%
    09:00 +26°C° 0 mm 1 mps 747 mmHg 45%
    10:00 +27°C° 0 mm 2 mps 747 mmHg 40%
    11:00 +28°C° 0 mm 2 mps 747 mmHg 40%
    12:00 +28°C° 0 mm 3 mps 746 mmHg 39%
    13:00 +29°C° 0 mm 3 mps 746 mmHg 38%
    14:00 +28°C° 0 mm 3 mps 746 mmHg 41%
    15:00 +27°C° 0 mm 3 mps 746 mmHg 43%
    16:00 +27°C° 0 mm 3 mps 746 mmHg 46%
    17:00 +24°C° 0 mm 2 mps 746 mmHg 57%
    18:00 +21°C° 0 mm 2 mps 746 mmHg 68%
    19:00 +19°C° 0 mm 1 mps 746 mmHg 79%
    20:00 +18°C° 0 mm 1 mps 746 mmHg 81%
    21:00 +16°C° 0 mm 1 mps 746 mmHg 83%
    22:00 +14°C° 0 mm 0 mps 746 mmHg 85%
    23:00 +14°C° 0 mm 0 mps 746 mmHg 85%

    1 June, Thursday

    Time Temperature Precipitation Wind Pressure Humidity
    00:00 +14°C° 0 mm 0 mps 746 mmHg 85%
    01:00 +14°C° 0 mm 0 mps 746 mmHg 85%
    02:00 +14°C° 0 mm 0 mps 746 mmHg 84%
    03:00 +13°C° 0 mm 0 mps 746 mmHg 84%
    04:00 +14°C° 0 mm 1 mps 745 mmHg 83%
    05:00 +16°C° 0 mm 0 mps 746 mmHg 73%
    06:00 +19°C° 0 mm 0 mps 746 mmHg 62%
    07:00 +22°C° 0 mm 0 mps 746 mmHg 52%
    08:00 +25°C° 0 mm 1 mps 746 mmHg 47%
    09:00 +27°C° 0 mm 1 mps 746 mmHg 43%
    10:00 +28°C° 0 mm 2 mps 746 mmHg 39%
    11:00 +29°C° 0 mm 2 mps 746 mmHg 38%
    12:00 +29°C° 0 mm 3 mps 745 mmHg 38%
    13:00 +30°C° 0 mm 3 mps 745 mmHg 37%
    14:00 +29°C° 0 mm 3 mps 745 mmHg 39%
    15:00 +29°C° 0 mm 3 mps 745 mmHg 42%
    16:00 +28°C° 0 mm 3 mps 745 mmHg 44%
    17:00 +25°C° 0 mm 3 mps 745 mmHg 54%
    18:00 +23°C° 0 mm 2 mps 745 mmHg 64%
    19:00 +20°C° 0 mm 1 mps 745 mmHg 74%
    20:00 +19°C° 0 mm 1 mps 745 mmHg 76%
    21:00 +18°C° 0 mm 1 mps 746 mmHg 78%
    22:00 +16°C° 0 mm 1 mps 746 mmHg 80%
    23:00 +16°C° 0 mm 1 mps 746 mmHg 78%

    2 June, Friday

    Time Temperature Precipitation Wind Pressure Humidity
    00:00 +15°C° 0 mm 1 mps 745 mmHg 75%
    01:00 +15°C° 0 mm 1 mps 745 mmHg 73%
    02:00 +15°C° 0 mm 1 mps 745 mmHg 72%
    03:00 +15°C° 0 mm 1 mps 745 mmHg 70%
    04:00 +15°C° 0 mm 1 mps 745 mmHg 69%
    05:00 +19°C° 0 mm 1 mps 745 mmHg 61%
    06:00 +21°C° 0 mm 1 mps 745 mmHg 53%
    07:00 +24°C° 0 mm 1 mps 745 mmHg 46%
    08:00 +26°C° 0 mm 1 mps 745 mmHg 42%
    09:00 +27°C° 0 mm 1 mps 745 mmHg 39%
    10:00 +29°C° 0 mm 2 mps 746 mmHg 36%
    11:00 +29°C° 0 mm 2 mps 745 mmHg 35%
    12:00 +30°C° 0 mm 3 mps 745 mmHg 34%
    13:00 +30°C° 0 mm 3 mps 745 mmHg 34%
    14:00 +30°C° 0 mm 3 mps 745 mmHg 37%
    15:00 +29°C° 0 mm 3 mps 745 mmHg 41%
    16:00 +28°C° 0 mm 4 mps 744 mmHg 45%
    17:00 +25°C° 0 mm 3 mps 744 mmHg 57%
    18:00 +23°C° 0 mm 2 mps 744 mmHg 69%
    19:00 +19°C° 0 mm 2 mps 745 mmHg 81%
    20:00 +19°C° 0 mm 1 mps 745 mmHg 83%
    21:00 +19°C° 0 mm 1 mps 745 mmHg 85%
    22:00 +18°C° 0 mm 1 mps 745 mmHg 86%
    23:00 +18°C° 0.1 mm 1 mps 745 mmHg 86%
    Show more